{"data":{"norad_id":41747,"epoch":"2026-05-24T22:56:09.885408Z","epoch_age_seconds":75509,"freshness":"FRESH","line1":"1 41747U 16053A   26144.95566997 -.00000027  00000+0  00000+0 0  9999","line2":"2 41747   0.0120 348.4799 0001469 337.3045 329.3146  1.00269212 35725","mean_motion":1.00269212,"eccentricity":0.0001469,"inclination_deg":0.012,"raan_deg":348.4799,"arg_perigee_deg":337.3045,"mean_anomaly_deg":329.3146,"bstar":0,"rev_number":3572,"period_min":1436.1337555939,"perigee_km":35781.122176831,"apogee_km":35793.510387005,"semimajor_km":42165.453281918,"source":"CELESTRAK","updated_at":"2026-05-25T13:38:14.335041Z"}}